Погода в Новом Атлашево

Россия / Чувашская Республика     56°00′51″N   47°33′12″E
темп.,
°C
ветер,
м/с
пор.,
м/с
влажн.,
%
обл.,
%
осадки,
мм/ч
давл.,
гПа
погр.,
м
14 апреля, ср
ср1400:00+7ю33715 0.0 103029
03:00+6ю337190 0.0 103026
06:00+4ю348111 0.0 102944
09:00+12ю36665 0.0 1028187
12:00+16ю57525 0.0 1027607
15:00+17ююв575119 0.0 1025849
18:00+14ююв49764 0.0 1024217
21:00+11ю39885 0.0 1024161
15 апреля, чт
чт1500:00+10ю35905 0.0 102386
03:00+9ю22905 0.0 102227
06:00+9ююв23910 0.0 102158
09:00+14ю34710 0.0 1021403
12:00+17ю226018 0.0 10191144
15:00+18ю225374 0.1 10181354
18:00+15зсз237178 1.2 101849
21:00+13с348499 2.3 1019103
16 апреля, пт
пт1600:00+9ссв61090100 0.3 1020416
03:00+7св61188100 0.3 1022491
06:00+6св61189100 0.1 1023552
09:00+6св61087100 0.4 1024580
12:00+8всв697586 0.0 1025706
15:00+10всв586781 0.0 1025959
18:00+9всв37675 0.0 1025193
21:00+5св411705 0.0 1027242
17 апреля, сб
сб1700:00+3св410731 0.0 1027219
03:00+1св410770 0.0 1028186
06:00+2св310741 0.0 1029246
09:00+7всв57485 0.0 1030704
12:00+11св56374 0.0 10291349
15:00+12св56361 0.0 10281580
18:00+9ссв47531 0.0 1028163
21:00+6ссв22632 0.0 102922
18 апреля, вс
вс1800:00+4с22714 0.0 102923
03:00+3ссв34795 0.0 103060
06:00+3ссв37795 0.0 1031168
09:00+8св465611 0.0 1030792
12:00+11ссв454651 0.0 10301668
15:00+11ссв664696 0.0 10301623
18:00+8св595853 0.0 1031555
21:00+5всв4107151 0.0 1033323